Year,Month,Day,Hour,Minute,Value (Times are PST for temperature in C)
2007,05,31,00,00,13.60
2007,05,31,00,01,13.50
2007,05,31,00,02,13.50
2007,05,31,00,03,13.50
2007,05,31,00,04,13.50
2007,05,31,00,05,13.50
2007,05,31,00,06,13.40
2007,05,31,00,07,13.40
2007,05,31,00,08,13.40
2007,05,31,00,09,13.40
2007,05,31,00,10,13.40
2007,05,31,00,11,13.40
2007,05,31,00,12,13.40
2007,05,31,00,13,13.40
2007,05,31,00,14,13.40
2007,05,31,00,15,13.40
2007,05,31,00,16,13.40
2007,05,31,00,17,13.40
2007,05,31,00,18,13.40
2007,05,31,00,19,13.30
2007,05,31,00,20,13.30
2007,05,31,00,21,13.30
2007,05,31,00,22,13.30
2007,05,31,00,23,13.30
2007,05,31,00,24,13.30
2007,05,31,00,25,13.30
2007,05,31,00,26,13.30
2007,05,31,00,27,13.30
2007,05,31,00,28,13.30
2007,05,31,00,29,13.30
2007,05,31,00,30,13.30
2007,05,31,00,31,13.30
2007,05,31,00,32,13.30
2007,05,31,00,33,13.30
2007,05,31,00,34,13.30
2007,05,31,00,35,13.30
2007,05,31,00,36,13.30
2007,05,31,00,37,13.30
2007,05,31,00,38,13.30
2007,05,31,00,39,13.30
2007,05,31,00,40,13.30
2007,05,31,00,41,13.30
2007,05,31,00,42,13.30
2007,05,31,00,43,13.30
2007,05,31,00,44,13.30
2007,05,31,00,45,13.30
2007,05,31,00,46,13.30
2007,05,31,00,47,13.30
2007,05,31,00,48,13.30
2007,05,31,00,49,13.30
2007,05,31,00,50,13.30
2007,05,31,00,51,13.30
2007,05,31,00,52,13.30
2007,05,31,00,53,13.30
2007,05,31,00,54,13.30
2007,05,31,00,55,13.30
2007,05,31,00,56,13.30
2007,05,31,00,57,13.30
2007,05,31,00,58,13.30
2007,05,31,00,59,13.30
2007,05,31,01,00,13.30
2007,05,31,01,01,13.30
2007,05,31,01,02,13.30
2007,05,31,01,03,13.30
2007,05,31,01,04,13.30
2007,05,31,01,05,13.30
2007,05,31,01,06,13.30
2007,05,31,01,07,13.30
2007,05,31,01,08,13.30
2007,05,31,01,09,13.30
2007,05,31,01,10,13.30
2007,05,31,01,11,13.30
2007,05,31,01,12,13.30
2007,05,31,01,13,13.30
2007,05,31,01,14,13.30
2007,05,31,01,15,13.30
2007,05,31,01,16,13.30
2007,05,31,01,17,13.30
2007,05,31,01,18,13.20
2007,05,31,01,19,13.20
2007,05,31,01,20,13.20
2007,05,31,01,21,13.20
2007,05,31,01,22,13.20
2007,05,31,01,23,13.20
2007,05,31,01,24,13.20
2007,05,31,01,25,13.20
2007,05,31,01,26,13.20
2007,05,31,01,27,13.20
2007,05,31,01,28,13.20
2007,05,31,01,29,13.10
2007,05,31,01,30,13.10
2007,05,31,01,31,13.10
2007,05,31,01,32,13.10
2007,05,31,01,33,13.00
2007,05,31,01,34,13.00
2007,05,31,01,35,13.00
2007,05,31,01,36,13.00
2007,05,31,01,37,12.90
2007,05,31,01,38,12.90
2007,05,31,01,39,12.90
2007,05,31,01,40,12.90
2007,05,31,01,41,12.90
2007,05,31,01,42,12.90
2007,05,31,01,43,12.90
2007,05,31,01,44,12.90
2007,05,31,01,45,12.90
2007,05,31,01,46,12.90
2007,05,31,01,47,12.90
2007,05,31,01,48,12.90
2007,05,31,01,49,12.90
2007,05,31,01,50,12.90
2007,05,31,01,51,12.90
2007,05,31,01,52,12.90
2007,05,31,01,53,12.90
2007,05,31,01,54,12.90
2007,05,31,01,55,12.90
2007,05,31,01,56,12.80
2007,05,31,01,57,12.80
2007,05,31,01,58,12.80
2007,05,31,01,59,12.80
2007,05,31,02,00,12.80
2007,05,31,02,01,12.80
2007,05,31,02,02,12.80
2007,05,31,02,03,12.80
2007,05,31,02,04,12.80
2007,05,31,02,05,12.80
2007,05,31,02,06,12.80
2007,05,31,02,07,12.80
2007,05,31,02,08,12.80
2007,05,31,02,09,12.70
2007,05,31,02,10,12.70
2007,05,31,02,11,12.70
2007,05,31,02,12,12.70
2007,05,31,02,13,12.70
2007,05,31,02,14,12.70
2007,05,31,02,15,12.60
2007,05,31,02,16,12.60
2007,05,31,02,17,12.60
2007,05,31,02,18,12.60
2007,05,31,02,19,12.60
2007,05,31,02,20,12.60
2007,05,31,02,21,12.60
2007,05,31,02,22,12.50
2007,05,31,02,23,12.50
2007,05,31,02,24,12.50
2007,05,31,02,25,12.50
2007,05,31,02,26,12.40
2007,05,31,02,27,12.40
2007,05,31,02,28,12.40
2007,05,31,02,29,12.40
2007,05,31,02,30,12.30
2007,05,31,02,31,12.30
2007,05,31,02,32,12.30
2007,05,31,02,33,12.30
2007,05,31,02,34,12.30
2007,05,31,02,35,12.30
2007,05,31,02,36,12.30
2007,05,31,02,37,12.30
2007,05,31,02,38,12.30
2007,05,31,02,39,12.30
2007,05,31,02,40,12.30
2007,05,31,02,41,12.30
2007,05,31,02,42,12.30
2007,05,31,02,43,12.30
2007,05,31,02,44,12.30
2007,05,31,02,45,12.30
2007,05,31,02,46,12.30
2007,05,31,02,47,12.30
2007,05,31,02,48,12.30
2007,05,31,02,49,12.30
2007,05,31,02,50,12.30
2007,05,31,02,51,12.30
2007,05,31,02,52,12.30
2007,05,31,02,53,12.30
2007,05,31,02,54,12.30
2007,05,31,02,55,12.30
2007,05,31,02,56,12.30
2007,05,31,02,57,12.30
2007,05,31,02,58,12.30
2007,05,31,02,59,12.30
2007,05,31,03,00,12.40
2007,05,31,03,01,12.40
2007,05,31,03,02,12.40
2007,05,31,03,03,12.40
2007,05,31,03,04,12.40
2007,05,31,03,05,12.40
2007,05,31,03,06,12.40
2007,05,31,03,07,12.40
2007,05,31,03,08,12.40
2007,05,31,03,09,12.40
2007,05,31,03,10,12.40
2007,05,31,03,11,12.40
2007,05,31,03,12,12.50
2007,05,31,03,13,12.50
2007,05,31,03,14,12.50
2007,05,31,03,15,12.50
2007,05,31,03,16,12.50
2007,05,31,03,17,12.50
2007,05,31,03,18,12.50
2007,05,31,03,19,12.50
2007,05,31,03,20,12.50
2007,05,31,03,21,12.50
2007,05,31,03,22,12.50
2007,05,31,03,23,12.50
2007,05,31,03,24,12.50
2007,05,31,03,25,12.50
2007,05,31,03,26,12.50
2007,05,31,03,27,12.50
2007,05,31,03,28,12.50
2007,05,31,03,29,12.50
2007,05,31,03,30,12.50
2007,05,31,03,31,12.50
2007,05,31,03,32,12.50
2007,05,31,03,33,12.50
2007,05,31,03,34,12.50
2007,05,31,03,35,12.50
2007,05,31,03,36,12.50
2007,05,31,03,37,12.50
2007,05,31,03,38,12.50
2007,05,31,03,39,12.50
2007,05,31,03,40,12.50
2007,05,31,03,41,12.50
2007,05,31,03,42,12.40
2007,05,31,03,43,12.50
2007,05,31,03,44,12.50
2007,05,31,03,45,12.40
2007,05,31,03,46,12.40
2007,05,31,03,47,12.40
2007,05,31,03,48,12.40
2007,05,31,03,49,12.40
2007,05,31,03,50,12.40
2007,05,31,03,51,12.40
2007,05,31,03,52,12.40
2007,05,31,03,53,12.40
2007,05,31,03,54,12.40
2007,05,31,03,55,12.30
2007,05,31,03,56,12.30
2007,05,31,03,57,12.30
2007,05,31,03,58,12.30
2007,05,31,03,59,12.30
2007,05,31,04,00,12.30
2007,05,31,04,01,12.30
2007,05,31,04,02,12.30
2007,05,31,04,03,12.30
2007,05,31,04,04,12.30
2007,05,31,04,05,12.30
2007,05,31,04,06,12.30
2007,05,31,04,07,12.30
2007,05,31,04,08,12.30
2007,05,31,04,09,12.30
2007,05,31,04,10,12.30
2007,05,31,04,11,12.30
2007,05,31,04,12,12.30
2007,05,31,04,13,12.30
2007,05,31,04,14,12.30
2007,05,31,04,15,12.30
2007,05,31,04,16,12.30
2007,05,31,04,17,12.30
2007,05,31,04,18,12.30
2007,05,31,04,19,12.30
2007,05,31,04,20,12.30
2007,05,31,04,21,12.30
2007,05,31,04,22,12.30
2007,05,31,04,23,12.30
2007,05,31,04,24,12.30
2007,05,31,04,25,12.30
2007,05,31,04,26,12.20
2007,05,31,04,27,12.20
2007,05,31,04,28,12.20
2007,05,31,04,29,12.20
2007,05,31,04,30,12.20
2007,05,31,04,31,12.20
2007,05,31,04,32,12.20
2007,05,31,04,33,12.20
2007,05,31,04,34,12.10
2007,05,31,04,35,12.10
2007,05,31,04,36,12.10
2007,05,31,04,37,12.10
2007,05,31,04,38,12.10
2007,05,31,04,39,12.10
2007,05,31,04,40,12.10
2007,05,31,04,41,12.00
2007,05,31,04,42,12.00
2007,05,31,04,43,12.00
2007,05,31,04,44,12.00
2007,05,31,04,45,12.00
2007,05,31,04,46,12.00
2007,05,31,04,47,12.00
2007,05,31,04,48,11.90
2007,05,31,04,49,11.90
2007,05,31,04,50,11.90
2007,05,31,04,51,11.90
2007,05,31,04,52,11.90
2007,05,31,04,53,11.90
2007,05,31,04,54,11.90
2007,05,31,04,55,11.90
2007,05,31,04,56,11.90
2007,05,31,04,57,11.90
2007,05,31,04,58,11.90
2007,05,31,04,59,11.90
2007,05,31,05,00,11.90
2007,05,31,05,01,12.00
2007,05,31,05,02,12.00
2007,05,31,05,03,12.00
2007,05,31,05,04,12.00
2007,05,31,05,05,12.00
2007,05,31,05,06,12.00
2007,05,31,05,07,12.00
2007,05,31,05,08,12.00
2007,05,31,05,09,12.00
2007,05,31,05,10,12.00
2007,05,31,05,11,12.00
2007,05,31,05,12,12.00
2007,05,31,05,13,12.00
2007,05,31,05,14,12.00
2007,05,31,05,15,12.00
2007,05,31,05,16,12.10
2007,05,31,05,17,12.10
2007,05,31,05,18,12.10
2007,05,31,05,19,12.10
2007,05,31,05,20,12.10
2007,05,31,05,21,12.20
2007,05,31,05,22,12.20
2007,05,31,05,23,12.20
2007,05,31,05,24,12.20
2007,05,31,05,25,12.20
2007,05,31,05,26,12.20
2007,05,31,05,27,12.20
2007,05,31,05,28,12.20
2007,05,31,05,29,12.20
2007,05,31,05,30,12.20
2007,05,31,05,31,12.20
2007,05,31,05,32,12.20
2007,05,31,05,33,12.20
2007,05,31,05,34,12.20
2007,05,31,05,35,12.20
2007,05,31,05,36,12.30
2007,05,31,05,37,12.30
2007,05,31,05,38,12.30
2007,05,31,05,39,12.30
2007,05,31,05,40,12.30
2007,05,31,05,41,12.30
2007,05,31,05,42,12.30
2007,05,31,05,43,12.30
2007,05,31,05,44,12.40
2007,05,31,05,45,12.40
2007,05,31,05,46,12.40
2007,05,31,05,47,12.40
2007,05,31,05,48,12.40
2007,05,31,05,49,12.40
2007,05,31,05,50,12.40
2007,05,31,05,51,12.30
2007,05,31,05,52,12.30
2007,05,31,05,53,12.30
2007,05,31,05,54,12.30
2007,05,31,05,55,12.30
2007,05,31,05,56,12.30
2007,05,31,05,57,12.30
2007,05,31,05,58,12.30
2007,05,31,05,59,12.20
2007,05,31,06,00,12.20
2007,05,31,06,01,12.20
2007,05,31,06,02,12.20
2007,05,31,06,03,12.20
2007,05,31,06,04,12.20
2007,05,31,06,05,12.20
2007,05,31,06,06,12.10
2007,05,31,06,07,12.10
2007,05,31,06,08,12.10
2007,05,31,06,09,12.10
2007,05,31,06,10,12.10
2007,05,31,06,11,12.00
2007,05,31,06,12,12.00
2007,05,31,06,13,12.00
2007,05,31,06,14,12.00
2007,05,31,06,15,12.00
2007,05,31,06,16,12.00
2007,05,31,06,17,12.00
2007,05,31,06,18,12.00
2007,05,31,06,19,12.00
2007,05,31,06,20,12.00
2007,05,31,06,21,12.00
2007,05,31,06,22,12.00
2007,05,31,06,23,12.00
2007,05,31,06,24,12.00
2007,05,31,06,25,12.00
2007,05,31,06,26,12.00
2007,05,31,06,27,12.00
2007,05,31,06,28,12.00
2007,05,31,06,29,12.10
2007,05,31,06,30,12.10
2007,05,31,06,31,12.10
2007,05,31,06,32,12.10
2007,05,31,06,33,12.10
2007,05,31,06,34,12.10
2007,05,31,06,35,12.20
2007,05,31,06,36,12.20
2007,05,31,06,37,12.20
2007,05,31,06,38,12.30
2007,05,31,06,39,12.30
2007,05,31,06,40,12.30
2007,05,31,06,41,12.30
2007,05,31,06,42,12.30
2007,05,31,06,43,12.40
2007,05,31,06,44,12.40
2007,05,31,06,45,12.40
2007,05,31,06,46,12.50
2007,05,31,06,47,12.50
2007,05,31,06,48,12.50
2007,05,31,06,49,12.70
2007,05,31,06,50,12.80
2007,05,31,06,51,12.90
2007,05,31,06,52,13.00
2007,05,31,06,53,13.10
2007,05,31,06,54,13.10
2007,05,31,06,55,13.20
2007,05,31,06,56,13.30
2007,05,31,06,57,13.30
2007,05,31,06,58,13.30
2007,05,31,06,59,13.40
2007,05,31,07,00,13.40
2007,05,31,07,01,13.50
2007,05,31,07,02,13.50
2007,05,31,07,03,13.60
2007,05,31,07,04,13.70
2007,05,31,07,05,13.70
2007,05,31,07,06,13.70
2007,05,31,07,07,13.70
2007,05,31,07,08,13.70
2007,05,31,07,09,13.80
2007,05,31,07,10,13.80
2007,05,31,07,11,13.80
2007,05,31,07,12,13.80
2007,05,31,07,13,13.90
2007,05,31,07,14,13.90
2007,05,31,07,15,13.90
2007,05,31,07,16,14.00
2007,05,31,07,17,14.00
2007,05,31,07,18,14.10
2007,05,31,07,19,14.10
2007,05,31,07,20,14.20
2007,05,31,07,21,14.20
2007,05,31,07,22,14.20
2007,05,31,07,23,14.30
2007,05,31,07,24,14.30
2007,05,31,07,25,14.40
2007,05,31,07,26,14.50
2007,05,31,07,27,14.50
2007,05,31,07,28,14.50
2007,05,31,07,29,14.60
2007,05,31,07,30,14.60
2007,05,31,07,31,14.70
2007,05,31,07,32,14.70
2007,05,31,07,33,14.70
2007,05,31,07,34,14.70
2007,05,31,07,35,14.70
2007,05,31,07,36,14.60
2007,05,31,07,37,14.60
2007,05,31,07,38,14.60
2007,05,31,07,39,14.60
2007,05,31,07,40,14.70
2007,05,31,07,41,14.70
2007,05,31,07,42,14.70
2007,05,31,07,43,14.70
2007,05,31,07,44,14.80
2007,05,31,07,45,14.80
2007,05,31,07,46,14.80
2007,05,31,07,47,14.80
2007,05,31,07,48,14.80
2007,05,31,07,49,14.80
2007,05,31,07,50,14.80
2007,05,31,07,51,14.70
2007,05,31,07,52,14.70
2007,05,31,07,53,14.70
2007,05,31,07,54,14.70
2007,05,31,07,55,14.70
2007,05,31,07,56,14.70
2007,05,31,07,57,14.70
2007,05,31,07,58,14.70
2007,05,31,07,59,14.70
2007,05,31,08,00,14.70
2007,05,31,08,01,14.80
2007,05,31,08,02,14.80
2007,05,31,08,03,14.90
2007,05,31,08,04,14.90
2007,05,31,08,05,14.90
2007,05,31,08,06,14.90
2007,05,31,08,07,14.90
2007,05,31,08,08,14.80
2007,05,31,08,09,14.90
2007,05,31,08,10,15.00
2007,05,31,08,11,15.10
2007,05,31,08,12,15.10
2007,05,31,08,13,15.10
2007,05,31,08,14,15.10
2007,05,31,08,15,15.10
2007,05,31,08,16,15.10
2007,05,31,08,17,15.10
2007,05,31,08,18,15.10
2007,05,31,08,19,15.10
2007,05,31,08,20,15.00
2007,05,31,08,21,15.00
2007,05,31,08,22,15.00
2007,05,31,08,23,14.90
2007,05,31,08,24,14.90
2007,05,31,08,25,14.90
2007,05,31,08,26,14.80
2007,05,31,08,27,14.80
2007,05,31,08,28,14.80
2007,05,31,08,29,14.80
2007,05,31,08,30,14.80
2007,05,31,08,31,14.80
2007,05,31,08,32,14.80
2007,05,31,08,33,14.80
2007,05,31,08,34,14.80
2007,05,31,08,35,14.80
2007,05,31,08,36,14.80
2007,05,31,08,37,14.80
2007,05,31,08,38,14.80
2007,05,31,08,39,14.80
2007,05,31,08,40,14.80
2007,05,31,08,41,14.80
2007,05,31,08,42,14.80
2007,05,31,08,43,14.80
2007,05,31,08,44,14.80
2007,05,31,08,45,14.80
2007,05,31,08,46,14.80
2007,05,31,08,47,14.80
2007,05,31,08,48,14.90
2007,05,31,08,49,14.90
2007,05,31,08,50,14.90
2007,05,31,08,51,15.00
2007,05,31,08,52,15.00
2007,05,31,08,53,15.00
2007,05,31,08,54,15.10
2007,05,31,08,55,15.10
2007,05,31,08,56,15.20
2007,05,31,08,57,15.20
2007,05,31,08,58,15.30
2007,05,31,08,59,15.30
2007,05,31,09,00,15.30
2007,05,31,09,01,15.30
2007,05,31,09,02,15.30
2007,05,31,09,03,15.30
2007,05,31,09,04,15.30
2007,05,31,09,05,15.30
2007,05,31,09,06,15.30
2007,05,31,09,07,15.30
2007,05,31,09,08,15.40
2007,05,31,09,09,15.40
2007,05,31,09,10,15.50
2007,05,31,09,11,15.50
2007,05,31,09,12,15.60
2007,05,31,09,13,15.60
2007,05,31,09,14,15.70
2007,05,31,09,15,15.80
2007,05,31,09,16,15.80
2007,05,31,09,17,15.90
2007,05,31,09,18,15.90
2007,05,31,09,19,16.10
2007,05,31,09,20,16.10
2007,05,31,09,21,16.20
2007,05,31,09,22,16.20
2007,05,31,09,23,16.20
2007,05,31,09,24,16.20
2007,05,31,09,25,16.30
2007,05,31,09,26,16.30
2007,05,31,09,27,16.30
2007,05,31,09,28,16.20
2007,05,31,09,29,16.20
2007,05,31,09,30,16.20
2007,05,31,09,31,16.20
2007,05,31,09,32,16.10
2007,05,31,09,33,15.90
2007,05,31,09,34,15.80
2007,05,31,09,35,15.60
2007,05,31,09,36,15.50
2007,05,31,09,37,15.40
2007,05,31,09,38,15.40
2007,05,31,09,39,15.40
2007,05,31,09,40,15.40
2007,05,31,09,41,15.50
2007,05,31,09,42,15.60
2007,05,31,09,43,15.70
2007,05,31,09,44,15.80
2007,05,31,09,45,15.90
2007,05,31,09,46,16.00
2007,05,31,09,47,16.10
2007,05,31,09,48,16.10
2007,05,31,09,49,16.10
2007,05,31,09,50,16.10
2007,05,31,09,51,16.10
2007,05,31,09,52,16.20
2007,05,31,09,53,16.20
2007,05,31,09,54,16.10
2007,05,31,09,55,16.10
2007,05,31,09,56,16.20
2007,05,31,09,57,16.20
2007,05,31,09,58,16.30
2007,05,31,09,59,16.40
2007,05,31,10,00,16.40
2007,05,31,10,01,16.60
2007,05,31,10,02,16.70
2007,05,31,10,03,16.70
2007,05,31,10,04,16.80
2007,05,31,10,05,16.90
2007,05,31,10,06,16.90
2007,05,31,10,07,17.10
2007,05,31,10,08,17.20
2007,05,31,10,09,17.20
2007,05,31,10,10,17.10
2007,05,31,10,11,16.90
2007,05,31,10,12,16.70
2007,05,31,10,13,16.60
2007,05,31,10,14,16.40
2007,05,31,10,15,16.20
2007,05,31,10,16,16.10
2007,05,31,10,17,16.10
2007,05,31,10,18,16.10
2007,05,31,10,19,16.30
2007,05,31,10,20,16.40
2007,05,31,10,21,16.60
2007,05,31,10,22,16.70
2007,05,31,10,23,16.60
2007,05,31,10,24,16.50
2007,05,31,10,25,16.40
2007,05,31,10,26,16.40
2007,05,31,10,27,16.40
2007,05,31,10,28,16.40
2007,05,31,10,29,16.40
2007,05,31,10,30,16.40
2007,05,31,10,31,16.40
2007,05,31,10,32,16.30
2007,05,31,10,33,16.20
2007,05,31,10,34,16.10
2007,05,31,10,35,16.00
2007,05,31,10,36,15.90
2007,05,31,10,37,15.90
2007,05,31,10,38,15.90
2007,05,31,10,39,16.00
2007,05,31,10,40,16.00
2007,05,31,10,41,15.90
2007,05,31,10,42,15.80
2007,05,31,10,43,15.80
2007,05,31,10,44,15.80
2007,05,31,10,45,15.80
2007,05,31,10,46,15.90
2007,05,31,10,47,16.00
2007,05,31,10,48,16.10
2007,05,31,10,49,16.30
2007,05,31,10,50,16.40
2007,05,31,10,51,16.40
2007,05,31,10,52,16.40
2007,05,31,10,53,16.40
2007,05,31,10,54,16.30
2007,05,31,10,55,16.30
2007,05,31,10,56,16.20
2007,05,31,10,57,16.20
2007,05,31,10,58,16.00
2007,05,31,10,59,15.80
2007,05,31,11,00,15.60
2007,05,31,11,01,15.30
2007,05,31,11,02,15.20
2007,05,31,11,03,14.80
2007,05,31,11,04,14.80
2007,05,31,11,05,14.80
2007,05,31,11,06,14.70
2007,05,31,11,07,14.60
2007,05,31,11,08,14.60
2007,05,31,11,09,14.60
2007,05,31,11,10,14.60
2007,05,31,11,11,14.70
2007,05,31,11,12,14.80
2007,05,31,11,13,14.80
2007,05,31,11,14,14.90
2007,05,31,11,15,15.00
2007,05,31,11,16,14.70
2007,05,31,11,17,14.40
2007,05,31,11,18,14.00
2007,05,31,11,19,13.70
2007,05,31,11,20,13.40
2007,05,31,11,21,13.20
2007,05,31,11,22,13.00
2007,05,31,11,23,12.90
2007,05,31,11,24,12.90
2007,05,31,11,25,12.90
2007,05,31,11,26,13.00
2007,05,31,11,27,13.10
2007,05,31,11,28,13.10
2007,05,31,11,29,13.10
2007,05,31,11,30,13.10
2007,05,31,11,31,13.10
2007,05,31,11,32,12.90
2007,05,31,11,33,12.90
2007,05,31,11,34,13.00
2007,05,31,11,35,13.10
2007,05,31,11,36,13.10
2007,05,31,11,37,13.10
2007,05,31,11,38,13.10
2007,05,31,11,39,13.00
2007,05,31,11,40,13.00
2007,05,31,11,41,13.00
2007,05,31,11,42,13.10
2007,05,31,11,43,13.20
2007,05,31,11,44,13.30
2007,05,31,11,45,13.50
2007,05,31,11,46,13.70
2007,05,31,11,47,13.90
2007,05,31,11,48,14.00
2007,05,31,11,49,14.10
2007,05,31,11,50,14.00
2007,05,31,11,51,13.90
2007,05,31,11,52,13.70
2007,05,31,11,53,13.60
2007,05,31,11,54,13.40
2007,05,31,11,55,13.20
2007,05,31,11,56,13.10
2007,05,31,11,57,13.00
2007,05,31,11,58,13.00
2007,05,31,11,59,13.10
2007,05,31,12,00,13.30
2007,05,31,12,01,13.50
2007,05,31,12,02,13.70
2007,05,31,12,03,13.80
2007,05,31,12,04,13.90
2007,05,31,12,05,13.90
2007,05,31,12,06,13.80
2007,05,31,12,07,13.70
2007,05,31,12,08,13.70
2007,05,31,12,09,13.60
2007,05,31,12,10,13.50
2007,05,31,12,11,13.40
2007,05,31,12,12,13.30
2007,05,31,12,13,13.30
2007,05,31,12,14,13.30
2007,05,31,12,15,13.30
2007,05,31,12,16,13.30
2007,05,31,12,17,13.30
2007,05,31,12,18,13.30
2007,05,31,12,19,13.30
2007,05,31,12,20,13.30
2007,05,31,12,21,13.30
2007,05,31,12,22,13.30
2007,05,31,12,23,13.30
2007,05,31,12,24,13.30
2007,05,31,12,25,13.20
2007,05,31,12,26,13.20
2007,05,31,12,27,13.20
2007,05,31,12,28,13.30
2007,05,31,12,29,13.30
2007,05,31,12,30,13.40
2007,05,31,12,31,13.50
2007,05,31,12,32,13.60
2007,05,31,12,33,13.70
2007,05,31,12,34,13.80
2007,05,31,12,35,13.90
2007,05,31,12,36,14.10
2007,05,31,12,37,14.20
2007,05,31,12,38,14.20
2007,05,31,12,39,14.20
2007,05,31,12,40,14.30
2007,05,31,12,41,14.30
2007,05,31,12,42,14.40
2007,05,31,12,43,14.30
2007,05,31,12,44,14.10
2007,05,31,12,45,13.90
2007,05,31,12,46,13.80
2007,05,31,12,47,13.80
2007,05,31,12,48,13.80
2007,05,31,12,49,13.90
2007,05,31,12,50,13.80
2007,05,31,12,51,13.80
2007,05,31,12,52,13.70
2007,05,31,12,53,13.70
2007,05,31,12,54,13.70
2007,05,31,12,55,13.70
2007,05,31,12,56,13.70
2007,05,31,12,57,13.80
2007,05,31,12,58,13.80
2007,05,31,12,59,13.80
2007,05,31,13,00,13.80
2007,05,31,13,01,13.80
2007,05,31,13,02,13.70
2007,05,31,13,03,13.70
2007,05,31,13,04,13.70
2007,05,31,13,05,13.70
2007,05,31,13,06,13.70
2007,05,31,13,07,13.70
2007,05,31,13,08,13.70
2007,05,31,13,09,13.90
2007,05,31,13,10,14.00
2007,05,31,13,11,14.10
2007,05,31,13,12,14.20
2007,05,31,13,13,14.30
2007,05,31,13,14,14.50
2007,05,31,13,15,14.50
2007,05,31,13,16,14.50
2007,05,31,13,17,14.50
2007,05,31,13,18,14.60
2007,05,31,13,19,14.60
2007,05,31,13,20,14.50
2007,05,31,13,21,14.50
2007,05,31,13,22,14.40
2007,05,31,13,23,14.30
2007,05,31,13,24,14.20
2007,05,31,13,25,14.40
2007,05,31,13,26,14.50
2007,05,31,13,27,14.70
2007,05,31,13,28,14.70
2007,05,31,13,29,14.80
2007,05,31,13,30,14.80
2007,05,31,13,31,15.00
2007,05,31,13,32,15.10
2007,05,31,13,33,15.20
2007,05,31,13,34,15.40
2007,05,31,13,35,15.50
2007,05,31,13,36,15.70
2007,05,31,13,37,15.80
2007,05,31,13,38,15.80
2007,05,31,13,39,16.00
2007,05,31,13,40,16.20
2007,05,31,13,41,16.30
2007,05,31,13,42,16.50
2007,05,31,13,43,16.70
2007,05,31,13,44,16.80
2007,05,31,13,45,17.00
2007,05,31,13,46,17.30
2007,05,31,13,47,17.50
2007,05,31,13,48,17.70
2007,05,31,13,49,17.90
2007,05,31,13,50,18.00
2007,05,31,13,51,18.10
2007,05,31,13,52,18.20
2007,05,31,13,53,18.10
2007,05,31,13,54,18.00
2007,05,31,13,55,17.90
2007,05,31,13,56,17.80
2007,05,31,13,57,17.80
2007,05,31,13,58,17.80
2007,05,31,13,59,17.80
2007,05,31,14,00,17.90
2007,05,31,14,01,17.80
2007,05,31,14,02,17.70
2007,05,31,14,03,17.80
2007,05,31,14,04,17.80
2007,05,31,14,05,17.90
2007,05,31,14,06,17.90
2007,05,31,14,07,18.10
2007,05,31,14,08,18.10
2007,05,31,14,09,18.20
2007,05,31,14,10,18.10
2007,05,31,14,11,18.10
2007,05,31,14,12,18.10
2007,05,31,14,13,18.20
2007,05,31,14,14,18.30
2007,05,31,14,15,18.50
2007,05,31,14,16,18.70
2007,05,31,14,17,18.80
2007,05,31,14,18,18.90
2007,05,31,14,19,18.90
2007,05,31,14,20,18.90
2007,05,31,14,21,19.10
2007,05,31,14,22,19.00
2007,05,31,14,23,18.90
2007,05,31,14,24,18.90
2007,05,31,14,25,18.90
2007,05,31,14,26,18.70
2007,05,31,14,27,18.60
2007,05,31,14,28,18.50
2007,05,31,14,29,18.40
2007,05,31,14,30,18.30
2007,05,31,14,31,18.20
2007,05,31,14,32,18.10
2007,05,31,14,33,17.90
2007,05,31,14,34,17.80
2007,05,31,14,35,17.70
2007,05,31,14,36,17.40
2007,05,31,14,37,17.10
2007,05,31,14,38,16.80
2007,05,31,14,39,16.80
2007,05,31,14,40,16.50
2007,05,31,14,41,16.40
2007,05,31,14,42,16.40
2007,05,31,14,43,16.30
2007,05,31,14,44,16.30
2007,05,31,14,45,16.10
2007,05,31,14,46,16.10
2007,05,31,14,47,16.10
2007,05,31,14,48,16.10
2007,05,31,14,49,16.20
2007,05,31,14,50,16.30
2007,05,31,14,51,16.30
2007,05,31,14,52,16.20
2007,05,31,14,53,16.00
2007,05,31,14,54,15.70
2007,05,31,14,55,15.50
2007,05,31,14,56,15.30
2007,05,31,14,57,15.00
2007,05,31,14,58,14.70
2007,05,31,14,59,14.40
2007,05,31,15,00,14.10
2007,05,31,15,01,13.90
2007,05,31,15,02,13.70
2007,05,31,15,03,13.60
2007,05,31,15,04,13.50
2007,05,31,15,05,13.40
2007,05,31,15,06,13.30
2007,05,31,15,07,13.40
2007,05,31,15,08,13.50
2007,05,31,15,09,13.60
2007,05,31,15,10,13.70
2007,05,31,15,11,13.70
2007,05,31,15,12,13.70
2007,05,31,15,13,13.80
2007,05,31,15,14,14.00
2007,05,31,15,15,13.90
2007,05,31,15,16,13.90
2007,05,31,15,17,13.90
2007,05,31,15,18,13.90
2007,05,31,15,19,14.00
2007,05,31,15,20,13.90
2007,05,31,15,21,13.70
2007,05,31,15,22,13.50
2007,05,31,15,23,13.30
2007,05,31,15,24,13.30
2007,05,31,15,25,12.90
2007,05,31,15,26,12.80
2007,05,31,15,27,12.70
2007,05,31,15,28,12.60
2007,05,31,15,29,12.40
2007,05,31,15,30,12.30
2007,05,31,15,31,12.30
2007,05,31,15,32,12.30
2007,05,31,15,33,12.30
2007,05,31,15,34,12.20
2007,05,31,15,35,12.10
2007,05,31,15,36,12.00
2007,05,31,15,37,11.90
2007,05,31,15,38,11.90
2007,05,31,15,39,11.90
2007,05,31,15,40,11.90
2007,05,31,15,41,11.90
2007,05,31,15,42,11.90
2007,05,31,15,43,11.90
2007,05,31,15,44,11.90
2007,05,31,15,45,11.80
2007,05,31,15,46,11.90
2007,05,31,15,47,11.80
2007,05,31,15,48,11.80
2007,05,31,15,49,11.80
2007,05,31,15,50,11.80
2007,05,31,15,51,11.80
2007,05,31,15,52,11.80
2007,05,31,15,53,11.80
2007,05,31,15,54,11.80
2007,05,31,15,55,11.80
2007,05,31,15,56,11.90
2007,05,31,15,57,12.00
2007,05,31,15,58,12.00
2007,05,31,15,59,12.00
2007,05,31,16,00,12.00
2007,05,31,16,01,11.90
2007,05,31,16,02,12.00
2007,05,31,16,03,12.00
2007,05,31,16,04,12.00
2007,05,31,16,05,12.10
2007,05,31,16,06,12.20
2007,05,31,16,07,12.30
2007,05,31,16,08,12.40
2007,05,31,16,09,12.40
2007,05,31,16,10,12.40
2007,05,31,16,11,12.40
2007,05,31,16,12,12.40
2007,05,31,16,13,12.40
2007,05,31,16,14,12.40
2007,05,31,16,15,12.50
2007,05,31,16,16,12.60
2007,05,31,16,17,12.60
2007,05,31,16,18,12.60
2007,05,31,16,19,12.60
2007,05,31,16,20,12.60
2007,05,31,16,21,12.70
2007,05,31,16,22,12.80
2007,05,31,16,23,12.80
2007,05,31,16,24,13.00
2007,05,31,16,25,13.20
2007,05,31,16,26,13.30
2007,05,31,16,27,13.40
2007,05,31,16,28,13.50
2007,05,31,16,29,13.60
2007,05,31,16,30,13.70
2007,05,31,16,31,13.80
2007,05,31,16,32,14.00
2007,05,31,16,33,14.10
2007,05,31,16,34,14.20
2007,05,31,16,35,14.20
2007,05,31,16,36,14.20
2007,05,31,16,37,14.10
2007,05,31,16,38,13.90
2007,05,31,16,39,13.70
2007,05,31,16,40,13.60
2007,05,31,16,41,13.60
2007,05,31,16,42,13.60
2007,05,31,16,43,13.60
2007,05,31,16,44,13.50
2007,05,31,16,45,13.50
2007,05,31,16,46,13.50
2007,05,31,16,47,13.50
2007,05,31,16,48,13.70
2007,05,31,16,49,13.80
2007,05,31,16,50,13.90
2007,05,31,16,51,14.00
2007,05,31,16,52,14.20
2007,05,31,16,53,14.30
2007,05,31,16,54,14.40
2007,05,31,16,55,14.60
2007,05,31,16,56,14.80
2007,05,31,16,57,15.00
2007,05,31,16,58,15.20
2007,05,31,16,59,15.40
2007,05,31,17,00,15.50
2007,05,31,17,01,15.60
2007,05,31,17,02,15.60
2007,05,31,17,03,15.60
2007,05,31,17,04,15.70
2007,05,31,17,05,15.70
2007,05,31,17,06,15.50
2007,05,31,17,07,15.30
2007,05,31,17,08,15.20
2007,05,31,17,09,15.00
2007,05,31,17,10,14.90
2007,05,31,17,11,14.80
2007,05,31,17,12,14.60
2007,05,31,17,13,14.40
2007,05,31,17,14,14.20
2007,05,31,17,15,14.10
2007,05,31,17,16,14.10
2007,05,31,17,17,14.10
2007,05,31,17,18,14.10
2007,05,31,17,19,14.20